Location: Groß Eilstorf
(52.8200°N, 9.4552°E)
Time: 11:18:39
(UTC+00:00)

Helios 1B rocket - Pass Details

Date: 15 May 2026
Orbit: 459 x 466 km, 98.2° (Epoch: 6 June)

Event Time Altitude Azimuth Distance (km) Brightness Sun altitude
Exits shadow 21:22:29 20° 117° (ESE) 1,140 3.5 -13.9°
Maximum altitude 21:24:16 33° 66° (ENE) 817 3.1 -14.0°
Drops below altitude 10° 21:27:28 10° 1° (N) 1,648 5.7 -14.2°
Sets 21:29:39 0° 352° (N) 2,529 7.2 -14.4°
